This is the latest recevied weather packets stored in our database for station/object KD5VOO. If no packets are shown the sender has not sent any weather packets the latest 10 day(s).
| Time | Temp. | Humidity | Pressure | Rain* | Wind** | Luminosity | Snow |
|---|---|---|---|---|---|---|---|
| 1777932120 | 26.67° C | 30% | 1011.5 hPa | 0 mm | - | 191 W/m² | - |
| 1777931816 | 26.67° C | 31% | 1011.5 hPa | 0 mm | - | 195 W/m² | - |
| 1777931514 | 26.67° C | 31% | 1011.5 hPa | 0 mm | - | 212 W/m² | - |
| 1777931209 | 26.67° C | 30% | 1011.5 hPa | 0 mm | - | 212 W/m² | - |
| 1777930906 | 26.67° C | 30% | 1011.9 hPa | 0 mm | - | 214 W/m² | - |
| 1777930603 | 26.67° C | 30% | 1011.5 hPa | 0 mm | - | 223 W/m² | - |
| 1777930299 | 26.67° C | 30% | 1011.5 hPa | 0 mm | - | 223 W/m² | - |
| 1777929996 | 26.67° C | 30% | 1011.5 hPa | 0 mm | - | 219 W/m² | - |
| 1777929693 | 26.67° C | 30% | 1011.5 hPa | 0 mm | - | 229 W/m² | - |
| 1777929390 | 26.67° C | 30% | 1011.5 hPa | 0 mm | - | 222 W/m² | - |
| 1777929086 | 26.67° C | 30% | 1011.5 hPa | 0 mm | - | 210 W/m² | - |
| 1777928784 | 26.67° C | 29% | 1011.9 hPa | 0 mm | - | 212 W/m² | - |
| 1777928480 | 26.67° C | 29% | 1011.9 hPa | 0 mm | - | 216 W/m² | - |
| 1777928178 | 26.67° C | 29% | 1011.9 hPa | 0 mm | - | 244 W/m² | - |
| 1777927875 | 26.67° C | 31% | 1012.2 hPa | 0 mm | - | 248 W/m² | - |
| 1777927574 | 26.67° C | 31% | 1012.2 hPa | 0 mm | - | 229 W/m² | - |
| 1777927272 | 26.67° C | 30% | 1012.6 hPa | 0 mm | - | 252 W/m² | - |
| 1777926971 | 26.67° C | 30% | 1012.6 hPa | 0 mm | - | 233 W/m² | - |
| 1777926668 | 26.67° C | 31% | 1012.6 hPa | 0 mm | - | 244 W/m² | - |
| 1777926363 | 26.67° C | 29% | 1012.6 hPa | 0 mm | - | 251 W/m² | - |
| 1777926060 | 26.67° C | 27% | 1012.6 hPa | 0 mm | - | 249 W/m² | - |
| 1777925757 | 26.67° C | 27% | 1012.9 hPa | 0 mm | - | 250 W/m² | - |
| 1777925455 | 26.67° C | 28% | 1012.9 hPa | 0 mm | - | 250 W/m² | - |
| 1777925150 | 26.67° C | 29% | 1012.6 hPa | 0 mm | - | 251 W/m² | - |
| 1777924848 | 26.67° C | 29% | 1012.9 hPa | 0 mm | - | 251 W/m² | - |
* Rain latest hour (hover to see other rain measurements)
** Current wind speed in m/s (hover to see current wind gust speed)